Location: Tomhannock
(42.8690°N, 73.5437°W)
Time: 05:49:19
(UTC+00:00)

Daily predictions for brighter satellites

Satellite Brightness Start Highest point End
(mag) Time Altitude Azimuth Time Altitude Azimuth Time Altitude Azimuth
STARLINK-1171 3.8 00:49:41 10° WNW 00:53:49 70° SW 00:57:56 10° SE
Okean 1 3.6 00:50:48 10° S 00:54:42 50° E 00:58:39 10° NNE
Meteor 1-4 Rocket 3.8 00:54:41 10° SE 00:57:25 22° E 01:00:09 10° NE
STARLINK-1218 3.6 00:53:38 10° SW 00:57:45 73° SE 01:01:53 10° ENE
STARLINK-1155 3.9 00:54:40 10° WNW 00:58:46 64° SW 01:02:51 10° SE
SPOT 3 Rocket 3.6 00:53:54 10° SSE 00:59:01 73° ENE 01:04:11 10° N
STARLINK-1212 4.3 00:56:20 10° WSW 00:59:19 43° NNW 01:02:18 10° NE
STARLINK-1105 4.3 00:56:48 10° WSW 00:59:46 42° NNW 01:02:45 10° NE
USA 186 3.4 00:58:05 10° SSW 01:00:10 25° W 01:02:22 10° NW
STARLINK-1247 4.3 00:57:40 10° WSW 01:00:38 42° NNW 01:03:37 10° NE
STARLINK-1227 4.3 00:58:08 10° WSW 01:01:06 41° NNW 01:04:05 10° NE
Cosmos 1515 4.4 00:58:09 10° SSE 01:01:36 33° E 01:05:04 10° NNE
STARLINK-1226 4.4 00:59:03 10° WSW 01:02:01 41° NNW 01:05:00 10° NE
ISS -1.3 00:59:50 10° NW 01:02:22 19° N 01:04:55 10° ENE
USA 229 DEB 3.8 00:55:59 10° SW 01:02:29 80° NW 01:09:22 10° NE
USA 229 3.8 00:56:07 10° SW 01:02:36 80° NW 01:09:28 10° NE
STARLINK-1254 3.6 00:58:36 10° SW 01:02:43 79° SE 01:06:53 10° NE
Cosmos 1190 Rocket 4.5 00:57:42 10° N 01:02:44 47° ENE 01:07:46 10° SE
STARLINK-1215 4.4 00:59:56 10° WSW 01:02:54 40° NNW 01:05:53 10° NE
STARLINK-1166 4.0 00:59:39 10° WNW 01:03:44 58° SW 01:07:47 10° SE
Cosmos 614 Rocket 4.0 00:59:19 10° NNW 01:04:24 74° ENE 01:09:29 10° SSE
STARLINK-1217 4.5 01:01:47 10° W 01:04:43 39° NNW 01:07:41 10° NE
Cosmos 1624 Rocket 4.2 00:59:48 10° S 01:04:54 51° ESE 01:10:04 10° NNE
STARLINK-1229 4.5 01:02:40 10° W 01:05:36 38° NNW 01:08:33 10° NE
Cosmos 44 Rocket 3.8 01:01:19 10° NW 01:06:06 57° WSW 01:10:59 10° SSE
Resurs 01 Rocket 1.9 01:02:04 10° SSE 01:06:22 52° ENE 01:10:43 10° N
Cosmos 1140 Rocket 4.0 01:01:24 10° N 01:06:24 46° ENE 01:11:24 10° SE
Cosmos 2278 Rocket 2.9 01:01:27 10° SSE 01:06:29 34° ESE 01:11:31 10° NE
STARLINK-1087 2.5 01:05:23 10° WNW 01:07:15 40° SW 01:08:54 12° SSE
STARLINK-1231 3.6 01:03:34 10° SW 01:07:42 86° SE 01:11:52 10° NE
Cosmos 1782 Rocket 4.0 01:04:00 10° N 01:08:21 48° ENE 01:12:41 10° SSE
STARLINK-1165 4.1 01:04:39 10° WNW 01:08:41 53° SW 01:12:42 10° SE
NOSS 3-1 (C) 3.9 01:04:02 10° SW 01:09:25 65° NW 01:15:43 10° NNE
H-2A R/B 3.7 01:05:55 10° SSW 01:10:23 32° W 01:14:59 10° NNW
STARLINK-1107 4.4 01:06:56 10° NW 01:10:56 45° NNE 01:14:56 10° ESE
Cosmos 1844 Rocket 3.8 01:05:38 10° SW 01:11:06 49° WNW 01:16:37 10° NNE
NOSS 3-1 (A) 3.3 01:06:18 10° SSW 01:11:41 85° SE 01:17:58 10° NE
STARLINK-1232 3.6 01:08:33 10° SW 01:12:41 87° NW 01:16:51 10° NE
Cosmos 1703 Rocket 3.5 01:08:59 10° S 01:13:18 81° E 01:17:39 10° N
STARLINK-1169 4.2 01:09:39 10° WNW 01:13:39 48° SW 01:17:30 11° SSE
CREW DRAGON DEMO-1 DEB 2.9 01:12:29 10° WNW 01:15:35 72° SW 01:18:11 13° SE
STARLINK-1066 4.3 01:11:56 10° NW 01:15:58 48° NNE 01:19:58 10° ESE
STARLINK-1208 3.7 01:13:32 10° WSW 01:17:40 81° NNW 01:21:50 10° NE
SL-4 R/B 3.8 01:17:02 10° NNE 01:18:09 11° NE 01:19:15 10° ENE
STARLINK-1178 4.4 01:14:40 10° WNW 01:18:37 44° SW 01:22:18 11° SSE
Meteor 1-19 Rocket 4.3 01:13:29 10° S 01:18:59 65° E 01:24:42 10° NNE
Cosmos 1371 Rocket 4.0 01:14:16 10° SSW 01:19:30 78° ESE 01:24:45 10° NNE
Cosmos 2034 Rocket 4.2 01:13:23 10° NNW 01:19:33 74° W 01:25:40 10° S
STARLINK-1081 4.2 01:16:53 10° NW 01:20:57 51° NNE 01:24:47 11° ESE
NOSS 2-3 (C) 3.6 01:18:14 10° SW 01:22:27 88° WNW 01:27:23 10° NE
SJ-6B 4.5 01:19:09 10° SSW 01:22:28 30° W 01:25:48 10° NW
STARLINK-1271 3.8 01:18:30 10° WSW 01:22:38 75° NW 01:26:48 10° NE
Okean 2 Rocket 4.2 01:19:22 10° NNE 01:23:14 28° ENE 01:26:18 14° SE
Cosmos 1544 3.2 01:20:20 10° N 01:23:55 54° E 01:27:02 13° SSE
ERS-1 Rocket 4.5 01:20:13 10° ESE 01:23:57 22° ENE 01:27:47 10° NNE
Crew Dragon 3.0 01:24:23 10° N 01:25:01 11° NNE 01:25:39 10° NNE
STARLINK-1230 4.5 01:21:39 10° S 01:25:10 27° SE 01:28:42 10° ENE
Terra 3.9 01:23:31 10° E 01:25:54 14° ENE 01:28:18 10° NNE
STARLINK-1070 4.1 01:21:50 10° NW 01:25:56 55° NNE 01:29:33 13° ESE
Cosmos 389 Rocket 3.5 01:23:39 10° SSW 01:26:59 47° WNW 01:30:23 10° N
Cosmos 1908 Rocket 4.2 01:22:37 10° NNW 01:26:59 57° W 01:31:21 10° S
STARLINK-1154 4.0 01:23:30 10° WSW 01:27:38 69° NNW 01:31:46 10° NE
STARLINK-1243 4.4 01:26:29 10° SSW 01:30:06 30° SE 01:33:45 10° ENE
Hubble Space Telescope 3.0 01:29:47 10° SSW 01:30:23 10° S 01:30:59 10° S
STARLINK-1069 4.0 01:26:49 10° NW 01:30:56 59° NNE 01:34:20 14° ESE
Meteor 1-18 Rocket 4.3 01:26:32 10° SSW 01:32:06 83° W 01:37:47 10° N
STARLINK-1197 4.1 01:28:30 10° WSW 01:32:36 64° NNW 01:36:44 10° NE
BREEZE M DEB (TANK) 3.5 01:24:54 10° SW 01:33:42 52° SSE 01:36:43 10° ENE
Lacrosse 5 3.2 01:29:14 10° NW 01:33:49 33° NNE 01:38:22 10° E
STARLINK-1236 4.2 01:31:21 10° SSW 01:35:04 33° SE 01:38:49 10° ENE
Spot 2 Rocket 3.8 01:31:06 14° SE 01:35:17 52° ENE 01:40:10 10° N
STARLINK-1085 3.9 01:31:48 10° NW 01:35:56 64° NNE 01:39:08 16° ESE
Cosmos 1356 3.7 01:32:46 10° NNW 01:36:12 68° W 01:39:27 11° S
Iridium 51 4.2 01:32:37 10° S 01:36:43 80° E 01:40:30 10° N
STARLINK-1198 4.3 01:33:32 10° WSW 01:37:37 59° NNW 01:41:44 10° NE
Cosmos 371 Rocket 4.0 01:34:22 12° SSE 01:38:16 32° E 01:42:35 10° NE
STARLINK-1086 3.8 01:36:46 10° NW 01:40:54 69° NE 01:43:54 18° ESE
Cosmos 2279 Rocket 4.4 01:35:55 10° N 01:41:55 46° ENE 01:46:28 17° SE
STARLINK-1199 4.4 01:38:31 10° WSW 01:42:35 55° NNW 01:46:40 10° NE
Cosmos 676 Rocket 4.1 01:38:01 10° NNW 01:43:15 64° ENE 01:47:09 18° SSE
MetOp-B 4.1 01:39:50 13° SSE 01:44:33 78° ENE 01:49:56 10° N
STARLINK-1269 4.0 01:41:05 10° SSW 01:44:57 40° SE 01:48:50 10° ENE
COSMOS 2406 3.2 01:39:57 10° NNW 01:45:45 87° ENE 01:50:17 17° SSE
STARLINK-1095 3.7 01:41:45 10° NW 01:45:54 75° NE 01:48:42 20° ESE
Cosmos 1743 4.4 01:44:00 10° NNW 01:47:24 32° W 01:50:48 10° SSW
Meteor 2-4 Rocket 3.6 01:42:23 10° S 01:47:43 70° E 01:53:03 10° NNE
Cosmos 2056 Rocket 3.8 01:42:50 10° SSW 01:47:55 69° WNW 01:53:02 10° NNE
Meteor 1-12 Rocket 4.5 01:42:41 10° N 01:48:14 54° ENE 01:52:17 19° SSE
IGS 5A 3.7 01:47:13 20° SE 01:49:54 55° ENE 01:54:00 10° N
STARLINK-1200 3.9 01:46:00 10° SSW 01:49:55 44° SE 01:53:53 10° ENE
STARLINK-1077 3.6 01:46:43 10° NW 01:50:52 81° NNE 01:53:29 22° ESE
STARLINK-1192 3.8 01:50:55 10° SSW 01:54:53 48° SE 01:58:54 10° ENE
CARTOSAT-1 4.5 01:52:54 20° ESE 01:55:09 34° ENE 01:59:04 10° N
Okean 3 3.4 01:51:41 12° S 01:55:38 77° E 01:59:56 10° N
STARLINK-1075 3.6 01:51:42 10° NW 01:55:51 88° NNE 01:58:15 24° SE
Meteor 1-13 Rocket 4.4 01:51:21 14° SSE 01:55:58 54° E 02:01:30 10° NNE
GPS 2-04 Rocket1 4.3 01:54:24 10° SSW 01:55:48 16° S 01:55:48 16° S
Cosmos 1634 Rocket 4.1 01:53:12 10° N 01:59:32 81° W 02:05:16 13° S
STARLINK-1244 3.7 01:55:50 10° SW 01:59:51 53° SE 02:03:53 10° ENE
STARLINK-1093 3.5 01:56:41 10° NW 02:00:50 86° SW 02:03:03 27° SE
Cosmos 1461 4.1 02:04:40 23° ESE 02:04:40 23° ESE 02:07:56 10° ENE
STARLINK-1138 3.6 02:00:44 10° SW 02:04:48 58° SE 02:08:52 10° ENE
STARLINK-1074 3.6 02:01:39 10° NW 02:05:48 79° SW 02:07:49 29° SE
GENESIS II 4.2 02:01:54 10° NW 02:05:57 87° WSW 02:07:49 30° SSE
STARLINK-1143 3.5 02:05:40 10° SW 02:09:45 64° SE 02:13:52 10° ENE
SPOT 5 3.4 02:07:41 24° SE 02:10:31 50° ENE 02:15:38 10° N
ERBS 2.9 02:09:25 10° WSW 02:12:40 58° NW 02:15:57 10° NE
STARLINK-1203 3.5 02:09:53 10° SW 02:14:03 71° SE 02:18:15 10° ENE
STARLINK-1241 3.5 02:10:38 10° SW 02:14:44 70° SE 02:18:52 10° ENE
Cosmos 1300 Rocket 3.5 02:10:42 10° N 02:15:11 88° E 02:17:36 27° S
STARLINK-1088 3.7 02:11:38 10° WNW 02:15:45 66° SW 02:17:23 34° SSE
Landsat 7 3.9 02:15:16 22° S 02:18:18 74° WSW 02:23:05 10° NNW
Cosmos 2082 Rocket 2.4 02:12:50 10° NNW 02:18:33 63° ENE 02:21:36 27° SE
Cosmos 1452 Rocket 3.4 02:13:27 10° SSW 02:18:39 79° ESE 02:23:57 10° NNE
STARLINK-1239 3.5 02:15:35 10° SW 02:19:42 77° SE 02:23:51 10° ENE
STARLINK-1115 3.8 02:16:37 10° WNW 02:20:43 60° SW 02:22:10 36° SSE
Cosmos 304 Rocket 4.3 02:20:05 31° SE 02:21:35 39° ESE 02:26:02 10° NE
Cosmos 1833 Rocket 2.7 02:16:45 10° NNW 02:22:22 76° WSW 02:25:34 27° SSE
Cosmos 1420 Rocket 4.3 02:18:01 10° SSW 02:23:12 66° WNW 02:28:23 10° NNE
STARLINK-1240 3.5 02:20:33 10° SW 02:24:41 83° SE 02:28:51 10° NE
STARLINK-1076 3.9 02:21:37 10° WNW 02:25:40 55° SW 02:26:56 38° SSE
CZ-4B DEB 4.5 02:28:01 42° S 02:28:59 69° WSW 02:32:20 10° NNW
Abrixas rocket 4.0 02:26:53 10° WNW 02:29:27 26° N 02:31:37 13° ENE
STARLINK-1216 3.5 02:25:30 10° SW 02:29:39 90° ENE 02:33:49 10° NE
Cosmos 1674 Rocket 3.4 02:28:04 33° S 02:29:56 72° E 02:34:19 10° NNE
STARLINK-1092 4.0 02:26:35 10° WNW 02:30:36 50° SW 02:31:42 38° S
Cosmos 2369 Rocket 4.0 02:31:29 14° E 02:31:29 14° E 02:34:10 10° ENE
Cosmos 332 Rocket 3.7 02:28:28 20° SSW 02:31:49 79° ESE 02:36:45 10° NNE
STARLINK-1100 4.4 02:28:53 10° NW 02:32:54 47° NNE 02:34:55 25° E
Cosmos 1943 Rocket 3.5 02:33:19 21° ESE 02:33:28 21° E 02:37:33 10° NE
STARLINK-1237 3.6 02:30:29 10° SW 02:34:38 83° NNW 02:38:47 10° NE
USA 245 4.3 02:33:13 22° SSW 02:34:47 31° WSW 02:37:33 10° NW
STARLINK-1080 4.1 02:31:39 10° WNW 02:35:37 45° SW 02:36:32 38° S
Cosmos 1378 Rocket 3.6 02:34:29 39° SSE 02:35:58 63° E 02:40:19 10° NNE
STARLINK-1083 4.3 02:33:50 10° NW 02:37:52 50° NNE 02:39:41 29° E
Cosmos 1066 Rocket 4.1 02:36:48 31° SSE 02:39:22 66° E 02:44:42 10° NNE
STARLINK-1202 3.7 02:35:29 10° WSW 02:39:38 77° NNW 02:43:47 10° NE
ISS -3.1 02:36:26 10° NW 02:39:44 49° NNE 02:40:32 39° ENE
STARLINK-1090 4.2 02:36:37 10° WNW 02:40:32 41° SW 02:41:17 37° SSW
Cosmos 1437 Rocket 2.7 02:39:15 35° SSW 02:40:42 74° W 02:44:30 10° N
STARLINK-1125 4.1 02:38:49 10° NW 02:42:53 54° NNE 02:44:29 32° E
Resurs 01 Rocket 4.1 02:40:31 10° SW 02:43:10 15° W 02:45:49 10° NW
EXPRESS MD2 3.4 02:40:33 10° SW 02:43:48 79° SSE 02:50:15 10° ENE
ATLAS 3B CENTAUR R/B 4.1 02:37:24 10° SW 02:43:51 20° S 02:43:51 20° S
USA 215 4.4 02:38:50 10° E 02:44:47 39° NNE 02:50:44 10° NW
STARLINK-1089 4.4 02:41:38 10° WNW 02:45:29 37° SW 02:46:03 35° SSW
SPOT 1/Viking Rocket 4.1 02:42:36 24° SSW 02:45:32 50° W 02:50:34 10° NNW
STARLINK-1109 4.0 02:43:47 10° NW 02:47:53 58° NNE 02:49:16 37° E
Cosmos 1975 Rocket 4.1 02:48:58 29° E 02:49:08 30° E 02:53:00 10° NNE
STARLINK-1246 4.0 02:45:28 10° WSW 02:49:34 66° NNW 02:53:43 10° NE
Cosmos 2278 Rocket 3.6 02:45:14 10° SW 02:50:28 37° WNW 02:55:45 10° N
Meteor 1-15 Rocket 4.3 02:45:10 10° N 02:51:08 87° E 02:53:45 36° S
SL-4 R/B 1.9 02:48:35 10° NW 02:51:20 47° W 02:51:20 47° W
STARLINK-1091 3.9 02:48:44 10° NW 02:52:51 62° NNE 02:54:02 42° E
Cosmos 1741 Rocket 3.9 02:48:35 10° NNW 02:53:50 83° WSW 02:55:39 42° SSE
STARLINK-1224 4.1 02:50:29 10° WSW 02:54:34 61° NNW 02:58:41 10° NE
Cosmos 972 Rocket 4.4 02:51:11 28° S 02:54:36 79° ESE 03:01:19 10° NNE
STARLINK-1072 3.8 02:53:42 10° NW 02:57:51 67° NNE 02:58:48 48° E
Crew Dragon 3.0 02:56:50 10° NW 02:57:36 19° NW 02:57:36 19° NW
STARLINK-1225 4.2 02:55:29 10° WSW 02:59:33 56° NNW 03:03:39 10° NE
SeaSat 1 2.7 02:55:30 10° NE 03:00:15 46° ESE 03:00:45 44° SE
ERS-1 Rocket 3.6 03:00:13 29° SSW 03:02:24 47° W 03:07:16 10° NNW
STARLINK-1096 3.7 02:58:42 10° NW 03:02:50 73° NE 03:03:36 56° E
Terra 1.9 03:01:34 44° S 03:03:02 74° WSW 03:07:48 10° NNW
Cosmos 2026 Rocket 4.4 03:01:47 36° SE 03:03:41 47° E 03:09:41 10° NNE
STARLINK-1230 4.4 03:00:30 10° WSW 03:04:33 52° NNW 03:08:37 10° NE
BREEZE-M DEB (TANK) 4.1 02:45:40 10° WSW 03:04:46 83° NNW 03:09:11 10° ENE
MTI 3.9 03:01:40 10° N 03:04:34 68° NW 03:04:34 68° NW
Cosmos 1766 3.5 03:01:40 10° N 03:05:35 54° E 03:05:44 54° E
CENTAUR R/B 4.4 02:58:58 10° NNW 03:05:57 33° NE 03:13:34 10° E
Cosmos 1850 Rocket 4.3 03:01:10 10° NNW 03:06:27 62° WSW 03:08:14 40° SSW
NOSS 2-2 (E) 3.1 03:07:04 69° ENE 03:07:04 69° ENE 03:10:40 10° NE
STARLINK-1079 3.6 03:03:41 10° NW 03:07:50 79° NE 03:08:24 64° ESE
Cosmos 1110 Rocket 3.9 03:09:30 39° SSW 03:11:31 90° SE 03:16:43 10° NNE
Cosmos 1733 3.7 03:07:53 10° N 03:11:27 47° ENE 03:11:27 47° ENE
STARLINK-1116 3.5 03:08:39 10° NW 03:12:48 85° NE 03:13:10 73° ESE
Okean 1 Rocket 3.3 03:08:47 10° NNW 03:13:12 62° W 03:14:11 48° SSW
Lacrosse 5 2.0 03:12:04 10° NW 03:17:02 58° SW 03:17:49 52° SSW
Nadezhda 4 Rocket 4.2 03:14:14 26° SSW 03:17:45 64° W 03:23:50 10° N
STARLINK-1094 3.5 03:18:38 10° NW 03:22:45 81° SW 03:22:45 81° SW
Cosmos 1455 Rocket 3.5 03:19:35 10° N 03:23:48 47° ENE 03:23:58 47° E
STARLINK-1117 3.6 03:23:36 10° WNW 03:27:31 72° WSW 03:27:31 72° WSW
NOSS 2-2 (C) 3.3 03:30:27 70° N 03:30:27 70° N 03:34:01 10° NE
ATLAS 2AS CENTAUR R/B 3.7 03:30:08 32° ESE 03:31:06 33° ESE 03:37:56 10° NE
Aureole 2 Rocket 3.9 03:32:21 28° WNW 03:32:30 29° WNW 03:35:15 10° N
STARLINK-1078 3.8 03:28:36 10° WNW 03:32:19 63° W 03:32:19 63° W
Cosmos 1331 Rocket 4.2 03:31:02 36° SW 03:33:05 65° WNW 03:38:14 10° NNE
STARLINK-1108 4.0 03:33:35 10° WNW 03:37:05 54° W 03:37:05 54° W
NOSS 3-2 (A) 4.3 03:31:36 10° NNW 03:39:05 65° NE 03:43:28 30° ESE
Cosmos 1302 Rocket 3.9 03:38:22 62° SSE 03:39:11 75° ESE 03:44:29 10° NNE
Cosmos 1378 4.2 03:38:55 36° W 03:39:13 37° WNW 03:42:42 10° N
SL-27 R/B 3.8 03:37:21 10° N 03:40:12 34° NE 03:40:12 34° NE
STARLINK-1071 4.2 03:38:35 10° WNW 03:41:52 47° W 03:41:52 47° W
Cosmos 1461 4.3 03:40:57 19° WSW 03:43:26 37° NW 03:47:30 10° NNE
EO 1 Del DPAF 3.4 03:40:35 10° NNE 03:43:55 68° N 03:43:55 68° N
COSMOS 2455 4.5 03:45:07 19° E 03:45:07 19° E 03:48:30 10° ENE
Cosmos 1900 4.5 03:41:34 10° NNW 03:46:37 68° ENE 03:47:24 58° ESE
STARLINK-1110 4.4 03:42:39 10° WNW 03:45:46 42° W 03:45:46 42° W
Cosmos 1470 3.5 03:43:42 10° N 03:46:57 45° NE 03:46:57 45° NE
USA 238 DEB 4.0 03:40:36 10° NNW 03:47:50 69° NE 03:51:05 36° SE
USA 238 4.0 03:40:42 10° NNW 03:47:56 69° NE 03:51:12 36° ESE
STARLINK-1112 4.5 03:45:53 10° NW 03:49:53 46° NNE 03:50:36 41° ENE
ALOS 2 3.3 03:53:11 42° ENE 03:53:19 42° ENE 03:57:28 10° N
STARLINK-1128 4.3 03:50:51 10° NW 03:54:53 49° NNE 03:55:23 46° NE
Meteor 2-13 Rocket 4.5 03:57:48 48° SSW 03:59:37 76° W 04:05:49 10° N
STARLINK-1113 4.2 03:55:48 10° NW 03:59:52 52° NNE 04:00:09 51° NE
Cosmos 1544 Rocket 3.5 03:55:35 10° N 03:59:43 80° NNE 03:59:43 80° NNE
Cosmos 2082 Rocket 4.0 03:58:08 10° NW 04:02:03 19° W 04:03:27 18° WSW
Cosmos 1417 Rocket 4.5 03:57:29 10° N 04:03:49 75° E 04:05:18 54° SSE
Cosmos 1842 4.1 04:04:44 43° WNW 04:04:44 43° WNW 04:08:21 10° N
STARLINK-1119 4.1 04:00:46 10° NW 04:04:51 56° NNE 04:04:56 56° NE
Thor Agena Rocket 4.0 04:00:20 10° N 04:05:33 58° WNW 04:07:01 42° SW
SL-8 R/B 3.9 04:03:05 10° WNW 04:07:53 69° NNE 04:08:51 53° E
Cosmos 1992 Rocket 4.2 04:08:52 53° E 04:08:52 53° E 04:13:50 10° NNE
STARLINK-1114 4.0 04:05:44 10° NW 04:09:42 60° NNE 04:09:42 60° NNE
Cosmos 1726 3.7 04:06:34 10° NNE 04:09:11 29° NE 04:09:11 29° NE
ATLAS CENTAUR R/B 3.6 04:13:51 16° ENE 04:13:51 16° ENE 04:15:07 10° ENE
Aureole 3 Rocket 4.2 04:07:01 10° N 04:12:48 80° W 04:14:58 49° S
Cosmos 2369 Rocket 2.2 04:13:14 56° SW 04:14:28 80° WNW 04:20:10 10° NNE
Meteor 2-8 Rocket 4.4 04:08:36 10° N 04:14:45 72° E 04:16:00 56° SE
STARLINK-1130 (DARKSAT) 4.0 04:10:43 10° NW 04:14:31 62° N 04:14:31 62° N
Cosmos 1943 Rocket 2.6 04:14:48 37° WSW 04:16:44 55° WNW 04:22:14 10° NNE
STARLINK-1084 4.0 04:15:40 10° NW 04:19:17 61° NNW 04:19:17 61° NNW
FALCON 9 R/B 4.2 04:25:00 22° ESE 04:25:00 22° ESE 04:30:05 10° E
STARLINK-1098 4.1 04:20:39 10° NW 04:24:03 57° NW 04:24:03 57° NW
Cosmos 1242 Rocket 3.9 04:27:39 35° NW 04:27:39 35° NW 04:30:30 10° N
Cosmos 2292 Rocket 4.1 04:28:07 47° NE 04:28:07 47° NE 04:30:58 10° NNE
USA 215 3.1 04:25:16 47° SE 04:27:25 84° SW 04:34:00 10° NW
STARLINK-1123 4.2 04:25:38 10° NW 04:28:50 52° NW 04:28:50 52° NW
BREEZE-M DEB (TANK) 3.2 04:21:07 10° WNW 04:30:26 90° ENE 04:30:37 83° ESE
S3M 3.9 04:25:54 10° N 04:32:05 84° W 04:33:15 61° S
STARLINK-1097 4.4 04:30:36 10° NW 04:33:36 47° NW 04:33:36 47° NW
Cosmos 292 Rocket 4.1 04:34:42 53° W 04:35:13 56° WNW 04:40:01 10° NNE
Cosmos 1655 Rocket 4.0 04:35:13 57° SSW 04:36:33 77° W 04:42:50 10° N
SeaSat 1 4.2 04:33:25 10° N 04:37:32 27° NW 04:40:31 16° W
YAOGAN 11 4.5 04:39:42 56° ENE 04:39:42 56° ENE 04:43:50 10° N
Cosmos 1271 Rocket 3.9 04:40:47 38° NW 04:40:47 38° NW 04:43:57 10° N
Helios 1A 3.2 04:42:08 67° NNE 04:42:08 67° NNE 04:45:53 10° N
NOSS 3-2 (C) 4.0 04:37:55 10° NW 04:45:36 85° SW 04:48:46 43° SSE
Cosmos 1707 4.0 04:49:05 36° WNW 04:49:05 36° WNW 04:52:13 10° N
Meteor 2-5 Rocket 4.3 04:49:14 40° ESE 04:49:47 41° E 04:54:59 10° NNE
Helios 1B rocket 3.7 04:48:23 10° NNE 04:51:26 33° ENE 04:51:26 33° ENE
NOSS 3-4 (A) 3.3 04:52:00 62° SSW 04:53:05 88° SE 04:59:24 10° NE
NOSS 3-4 (C) 3.3 04:52:07 63° SSW 04:53:12 87° ESE 04:59:31 10° NE
Cosmos 1503 Rocket 3.9 04:49:39 10° NNW 04:54:58 76° WSW 04:55:11 75° SW
ATLAS 3B R/B 3.3 04:49:06 10° NNW 04:55:44 53° NE 05:00:19 21° ESE
Cosmos 1340 Rocket 3.4 04:52:17 10° NNW 04:55:32 55° NNW 04:55:32 55° NNW
Cosmos 1656 Rocket 3.7 04:55:34 60° WSW 04:56:30 73° WNW 05:02:07 10° NNE
CENTAUR R/B 3.1 04:49:23 10° NW 04:57:35 84° WSW 05:01:10 41° SSE
Cosmos 1953 3.2 04:53:58 10° NNW 04:57:00 43° NW 04:57:00 43° NW
Cosmos 968 Rocket 3.8 04:52:54 10° NNW 04:57:43 50° W 04:57:43 50° W
Cosmos 1674 3.6 05:02:07 46° NNE 05:02:07 46° NNE 05:04:52 10° N
Cosmos 1025 Rocket 4.4 05:02:17 29° WNW 05:02:18 29° WNW 05:06:04 10° NNW
PSLV R/B 4.2 04:58:56 10° NNE 05:03:00 48° E 05:03:00 48° E
Cosmos 1892 Rocket 4.3 05:04:00 43° ENE 05:04:00 43° ENE 05:07:50 10° NNE
In-Cosmos 22 4.1 05:04:34 60° WSW 05:05:06 64° WNW 05:10:22 10° N
Meteor 2-10 4.4 05:01:16 10° NNW 05:06:06 47° W 05:06:06 47° W
Cosmos 1833 4.2 05:04:18 10° NNW 05:09:51 62° WSW 05:10:07 62° SW
Cosmos 1354 Rocket 4.1 05:06:01 10° NNW 05:11:15 62° WSW 05:11:18 62° WSW
Cosmos 1726 Rocket 3.8 05:09:26 10° N 05:13:26 64° NE 05:13:26 64° NE
Cosmos 1867 3.5 05:09:35 10° NNW 05:15:04 88° NE 05:15:45 70° SE
Cosmos 2266 Rocket 4.4 05:17:31 42° WSW 05:18:55 49° WNW 05:24:48 10° N
ATLAS 2AS CENTAUR R/B 3.3 05:17:31 31° WSW 05:21:40 66° NW 05:29:36 10° NNE
SL-4 R/B 2.5 05:22:07 64° WNW 05:22:38 71° NNW 05:27:27 10° NE
Cosmos 2297 Rocket 4.3 05:19:25 10° N 05:23:52 23° NE 05:28:17 10° ESE
Meteor 2-14 Rocket 4.4 05:25:33 56° SSE 05:26:49 72° E 05:32:55 10° NNE
COSMOS 2487 4.2 05:23:57 10° NNW 05:25:46 28° NW 05:25:46 28° NW
BREEZE-M R/B 3.8 05:30:04 47° ESE 05:30:04 47° ESE 05:32:50 10° ENE
Timation 2 Rocket 4.3 05:22:57 10° NNW 05:29:13 60° ENE 05:31:59 33° SE
Cosmos 1244 Rocket 4.4 05:27:54 57° S 05:29:16 80° E 05:35:28 10° N
COSMOS 2455 2.9 05:28:14 51° WSW 05:29:42 71° WNW 05:35:45 10° NNE
Cosmos 2098 Rocket 4.4 05:29:07 47° SW 05:31:01 65° W 05:38:24 10° N
Cosmos 2228 3.4 05:27:07 10° NNW 05:30:44 55° NW 05:30:44 55° NW
Cosmos 1809 Rocket 4.4 05:31:04 59° SSW 05:32:21 84° W 05:38:35 10° N
SL-16 R/B 4.0 05:28:38 13° ESE 05:33:14 31° ENE 05:38:31 10° N
Cosmos 1908 4.4 05:31:20 10° NNW 05:33:58 36° NW 05:33:58 36° NW
Cosmos 921 Rocket 3.4 05:37:25 54° E 05:37:25 54° E 05:41:17 10° NNE
SJ 16-02 3.9 05:34:26 10° NNE 05:37:20 17° ENE 05:40:14 10° E
CZ-4 R/B 3.9 05:34:30 10° N 05:39:15 63° WNW 05:39:34 61° W
Cosmos 2058 Rocket 3.0 05:39:03 10° N 05:43:24 86° NNE 05:43:24 86° NNE
CZ-2D R/B 3.4 05:45:18 10° NE 05:49:51 29° E 05:51:15 25° ESE
ATLAS CENTAUR R/B 2.3 05:50:00 40° WNW 05:50:29 41° NW 05:54:27 10° NNE
FALCON 9 DEB 4.5 05:53:06 37° NE 05:53:06 37° NE 05:55:18 10° NE
Resurs 1-4 Rocket 3.3 05:47:31 10° NNE 05:52:13 32° E 05:53:41 27° SE
Cosmos 1626 Rocket 3.9 05:54:16 53° ESE 05:54:26 53° E 05:58:39 10° NNE
Cosmos 220 Rocket 4.0 05:55:58 72° ESE 05:55:58 72° ESE 06:00:23 10° NNE
Okean 1-7 Rocket 3.8 05:57:24 58° W 05:57:27 58° W 06:01:54 10° N
Cosmos 1697 Rocket 4.5 05:57:02 17° SE 05:58:53 20° E 06:02:55 10° NE
Cosmos 2227 Rocket 3.6 05:54:57 10° N 06:00:10 36° ENE 06:05:21 10° ESE
STARLINK-52 4.4 06:01:46 37° NNE 06:01:46 37° NNE 06:04:06 10° NE
RESURS DK-1 2.6 06:03:13 59° WNW 06:03:13 59° WNW 06:07:18 10° NNE
GEOS 3 Rocket 3.6 06:01:42 37° SE 06:03:51 84° NE 06:09:09 10° NW
SL-08 R/B 4.5 06:02:41 49° SSW 06:04:29 79° W 06:10:52 10° N
STARLINK-1352 4.4 06:08:15 36° E 06:08:15 36° E 06:10:39 10° ENE
Cosmos 1626 3.1 06:09:01 39° NW 06:09:01 39° NW 06:12:01 10° N
STARLINK-1368 4.3 06:10:44 39° E 06:10:44 39° E 06:13:13 10° ENE
CZ-4C R/B 4.1 06:09:10 41° ESE 06:10:12 51° ENE 06:14:27 10° N
Meteor 1-24 Rocket 3.9 06:09:34 46° WSW 06:10:33 52° WNW 06:15:50 10° N
STARLINK-1369 4.2 06:13:13 42° E 06:13:13 42° E 06:15:50 10° ENE
NPP 4.5 06:07:30 10° NNE 06:12:35 41° E 06:14:28 31° SE
BREEZE M DEB (TANK) 3.8 06:12:50 31° N 06:13:04 32° NNE 06:16:22 10° E
Cosmos 1300 3.3 06:09:49 10° NNW 06:12:53 45° WNW 06:12:53 45° WNW
Cosmos 1656 4.2 06:12:40 39° SSE 06:14:11 50° ESE 06:19:37 10° NE
SL-19 R/B 4.2 06:09:21 10° N 06:14:48 73° WNW 06:16:20 49° SW
STARLINK-1372 4.0 06:15:43 46° E 06:15:43 46° E 06:18:27 10° ENE
Meteor 2-16 Rocket 4.5 06:14:45 46° SW 06:16:32 68° W 06:22:40 10° N
Meteor 2-10 Rocket 4.4 06:12:18 10° N 06:17:23 45° ENE 06:20:12 23° SE
STARLINK-1378 3.9 06:18:14 50° E 06:18:14 50° E 06:21:05 10° ENE
Cosmos 1356 Rocket 3.2 06:13:39 10° N 06:17:50 88° W 06:18:03 81° S
Cosmos 1812 Rocket 3.9 06:14:08 10° N 06:18:34 60° E 06:19:41 45° SE
STARLINK-1329 3.8 06:20:03 54° E 06:20:03 54° E 06:23:00 10° ENE
Cosmos 1386 Rocket 4.3 06:17:38 46° S 06:19:36 88° W 06:25:47 10° N
STARLINK-1379 3.7 06:20:45 55° ENE 06:20:45 55° ENE 06:23:43 10° ENE
STARLINK-1365 3.6 06:22:15 61° ENE 06:22:15 61° ENE 06:25:21 10° NE
STARLINK-1362 3.6 06:22:39 59° ENE 06:22:39 59° ENE 06:25:42 10° ENE
SL-14 R/B 4.5 06:23:28 30° WNW 06:23:28 30° WNW 06:26:40 10° NNW
Cosmos 1709 Rocket 4.3 06:21:34 33° SSE 06:24:14 60° E 06:30:15 10° NNE
STARLINK-1373 3.5 06:24:57 64° ENE 06:24:57 64° ENE 06:28:06 10° NE
STARLINK-1320 3.9 06:27:13 44° NE 06:27:13 44° NE 06:29:29 10° NE
STARLINK-1322 3.9 06:27:32 45° NE 06:27:32 45° NE 06:29:49 10° NE
STARLINK-1390 3.4 06:27:13 68° ENE 06:27:13 68° ENE 06:30:27 10° NE
STARLINK-1324 3.9 06:27:52 45° NE 06:27:52 45° NE 06:30:10 10° NE
CZ-4C R/B 2.9 06:25:54 30° SE 06:27:06 34° ESE 06:32:07 10° NE
Helios 1B rocket 4.3 06:24:15 10° NNW 06:27:14 20° WNW 06:27:46 19° WNW
STARLINK-1294 3.8 06:28:09 46° NE 06:28:09 46° NE 06:30:29 10° NE
STARLINK-1261 3.8 06:28:31 46° NE 06:28:31 46° NE 06:30:50 10° NE
STARLINK-1325 3.8 06:28:50 47° NE 06:28:50 47° NE 06:31:11 10° NE
Cosmos 1602 Rocket 3.3 06:27:39 69° SSW 06:28:09 84° W 06:32:30 10° N
STARLINK-1333 3.8 06:29:11 47° NE 06:29:11 47° NE 06:31:32 10° NE
STARLINK-1334 3.8 06:29:29 47° NE 06:29:29 47° NE 06:31:51 10° NE
STARLINK-1326 3.8 06:29:49 48° NE 06:29:49 48° NE 06:32:12 10° NE
STARLINK-1323 3.8 06:30:08 48° NE 06:30:08 48° NE 06:32:32 10° NE
STARLINK-1349 3.7 06:30:28 49° NE 06:30:28 49° NE 06:32:52 10° NE
STARLINK-1336 3.7 06:30:48 49° NE 06:30:48 49° NE 06:33:13 10° NE
STARLINK-1331 3.7 06:31:08 49° NE 06:31:08 49° NE 06:33:34 10° NE
STARLINK-1344 3.7 06:31:27 50° NE 06:31:27 50° NE 06:33:54 10° NE
STARLINK-1343 3.7 06:31:46 50° NE 06:31:46 50° NE 06:34:13 10° NE
STARLINK-1346 3.6 06:32:03 52° NE 06:32:03 52° NE 06:34:35 10° NE
STARLINK-1328 3.7 06:32:25 51° NE 06:32:25 51° NE 06:34:53 10° NE
STARLINK-1354 3.6 06:32:44 52° NE 06:32:44 52° NE 06:35:13 10° NE
STARLINK-1347 3.6 06:33:04 52° NNE 06:33:04 52° NNE 06:35:34 10° NE
STARLINK-1357 3.6 06:33:23 52° NNE 06:33:23 52° NNE 06:35:53 10° NE
Cosmos-2242 4.3 06:28:58 10° N 06:32:53 35° ENE 06:35:15 20° SE
STARLINK-1335 3.6 06:33:45 53° NNE 06:33:45 53° NNE 06:36:17 10° NE
STARLINK-1327 3.6 06:34:03 53° NNE 06:34:03 53° NNE 06:36:36 10° NE
STARLINK-1340 3.6 06:34:22 53° NNE 06:34:22 53° NNE 06:36:55 10° NE
STARLINK-1356 3.6 06:34:41 54° NNE 06:34:41 54° NNE 06:37:15 10° NE
STARLINK-1345 3.5 06:35:01 54° NNE 06:35:01 54° NNE 06:37:36 10° NE
STARLINK-1355 3.5 06:35:20 54° NNE 06:35:20 54° NNE 06:37:56 10° NE
STARLINK-1321 3.5 06:35:41 55° NNE 06:35:41 55° NNE 06:38:16 10° NE
STARLINK-1358 3.5 06:36:00 55° NNE 06:36:00 55° NNE 06:38:37 10° NE
STARLINK-1332 3.5 06:36:21 55° NNE 06:36:21 55° NNE 06:38:59 10° NE
STARLINK-1348 3.5 06:36:39 55° NNE 06:36:39 55° NNE 06:39:17 10° NE
STARLINK-1330 3.5 06:36:58 56° NNE 06:36:58 56° NNE 06:39:37 10° NE
STARLINK-1363 3.5 06:37:19 56° NNE 06:37:19 56° NNE 06:39:59 10° NE
STARLINK-1337 3.5 06:37:38 56° NNE 06:37:38 56° NNE 06:40:18 10° NE
STARLINK-1342 3.5 06:37:56 56° NNE 06:37:56 56° NNE 06:40:37 10° NE
STARLINK-1364 3.4 06:38:16 56° NNE 06:38:16 56° NNE 06:40:58 10° NE
STARLINK-1376 3.4 06:38:36 57° N 06:38:36 57° N 06:41:18 10° NE
STARLINK-1360 3.4 06:38:55 57° N 06:38:55 57° N 06:41:39 10° NE
STARLINK-1198 4.4 06:34:43 10° NW 06:38:48 53° NNE 06:42:51 10° ESE
STARLINK-1361 3.4 06:39:15 57° N 06:39:15 57° N 06:41:58 10° NE
STARLINK-1367 3.4 06:39:31 58° N 06:39:31 58° N 06:42:19 10° NE
STARLINK-1366 3.4 06:39:55 57° N 06:39:55 57° N 06:42:40 10° NE
STARLINK-1199 4.2 06:39:39 10° NW 06:43:46 57° NNE 06:47:50 10° ESE
Meteor 1-21 Rocket 4.1 06:42:12 40° S 06:44:22 89° E 06:50:05 10° N
Nadezhda 1 Rocket 4.2 06:40:10 10° NNW 06:46:09 53° W 06:48:24 36° SW
ATLAS 3B R/B 3.3 06:40:07 10° NW 06:46:13 35° WSW 06:47:30 33° SW
Cosmos 1763 Rocket 3.6 06:44:29 39° S 06:46:18 66° ESE 06:51:21 10° NNE
IKONOS-2 4.4 06:46:24 50° S 06:47:28 80° WSW 06:51:46 10° NNW
CENTAUR R/B 4.4 06:41:43 10° WNW 06:47:32 21° WSW 06:48:18 21° WSW
IRS-1D 4.2 06:42:43 10° NNE 06:47:53 49° E 06:50:36 26° SSE
STARLINK-1210 4.1 06:44:38 10° NW 06:48:45 62° NNE 06:52:51 10° ESE
Lacrosse 4 Rocket 3.6 06:45:35 10° N 06:49:17 27° NE 06:52:53 10° ESE
GP-B 3.4 06:45:23 10° N 06:49:47 62° E 06:51:38 33° SSE
UNK 3.6 06:49:10 45° S 06:50:31 72° WSW 06:55:08 10° NNW
Cosmos 1980 Rocket 3.6 06:48:47 17° SSE 06:52:03 29° ESE 06:56:50 10° NE
STARLINK-1219 3.9 06:49:35 10° NW 06:53:44 67° NNE 06:57:51 10° ESE
Cosmos 1328 4.2 06:52:52 39° SSE 06:54:05 59° E 06:58:01 10° NNE
Cosmos 1455 2.0 06:51:00 10° N 06:54:45 88° ENE 06:55:32 55° S
Cosmos 2219 3.2 06:50:49 10° NNW 06:56:23 61° WSW 06:59:00 31° S
STARLINK-1211 3.8 06:54:34 10° NW 06:58:43 72° NNE 07:02:52 10° ESE
MOZ.5/SAFIR/RUBIN 5/SL-8 4.2 06:59:55 38° WSW 07:00:41 41° W 07:05:05 10° NNW
SL-4 R/B 4.1 06:58:40 10° WNW 07:02:59 31° N 07:07:10 10° NE
STARLINK-1245 3.7 06:59:32 10° NW 07:03:42 78° NNE 07:07:51 10° ESE
ATLAS CENTAUR R/B 2.0 07:01:44 10° NW 07:04:49 85° SW 07:12:12 10° SE
Cosmos 1758 Rocket 3.5 07:05:35 42° SSW 07:06:55 68° W 07:11:18 10° N
Cosmos 2297 Rocket 2.2 07:02:46 10° NNW 07:08:20 61° WSW 07:11:45 24° S
STARLINK-1233 3.6 07:04:32 10° NW 07:08:41 85° NE 07:12:49 10° SE
BREEZE-M DEB (TANK) 2.0 07:12:10 57° N 07:12:10 57° N 07:14:25 10° ENE
STARLINK-1204 3.5 07:09:31 10° NW 07:13:40 89° SW 07:17:49 10° SE
ARIANE 5 R/B 3.6 07:09:05 10° NNE 07:13:48 38° E 07:17:45 14° SSE
Cosmos 2082 3.8 07:08:23 10° NNW 07:14:05 77° ENE 07:19:42 10° SSE
AQUA 3.9 07:09:44 10° N 07:14:28 66° WNW 07:16:34 32° SW
BREEZE-M DEB (TANK) 4.0 07:12:54 26° S 07:15:09 44° SE 07:27:27 10° ENE
SJ 16-02 1.5 07:11:56 10° NNW 07:16:15 51° WSW 07:17:48 34° SSW
SL-16 R/B 2.8 07:13:42 28° SSW 07:16:37 46° W 07:22:32 10° NNW
STARLINK-1238 3.5 07:14:31 10° NW 07:18:40 82° SW 07:22:47 10° SE
CRYOSAT 2 4.5 07:14:06 10° N 07:19:01 75° E 07:22:17 21° S
Cosmos 2278 4.0 07:15:36 23° S 07:19:01 60° ESE 07:24:36 10° NNE
Cosmos 468 Rocket 4.3 07:16:46 30° SW 07:19:05 54° WNW 07:24:07 10° NNE
Cosmos 1898 Rocket 3.5 07:13:50 10° NNW 07:19:08 65° WSW 07:22:49 20° S
STARLINK-1338 4.3 07:18:05 23° W 07:19:48 38° NNW 07:23:10 10° NE
Cosmos 2184 Rocket 4.3 07:15:39 16° S 07:20:40 63° E 07:26:45 10° NNE
ADEOS II 2.2 07:15:29 10° NNE 07:20:45 75° ESE 07:24:11 22° S
Cosmos 1953 Rocket 3.5 07:21:24 30° SSW 07:23:37 83° W 07:28:05 10° N
STARLINK-1201 3.5 07:19:30 10° WNW 07:23:38 75° SW 07:27:46 10° SE
STARLINK-1371 4.5 07:22:46 20° W 07:24:42 36° NNW 07:28:02 10° NE
Cosmos 1937 Rocket 3.4 07:20:36 10° NNW 07:25:51 78° WSW 07:31:07 10° SSE
IRS-P3 4.2 07:22:45 10° NNE 07:28:07 80° ESE 07:31:50 20° S
STARLINK-1206 3.5 07:24:28 10° WNW 07:28:36 69° SW 07:32:42 10° SE
Cosmos 1570 Rocket 4.0 07:26:49 26° SSW 07:29:54 83° WNW 07:35:14 10° NNE
CZ-2D R/B 2.9 07:25:10 10° N 07:29:56 36° WNW 07:32:35 22° WSW
Cosmos 1703 3.8 07:29:00 32° SW 07:30:21 44° WNW 07:34:10 10° N
Cosmos 1400 Rocket 3.1 07:26:32 10° N 07:30:39 69° ENE 07:34:36 11° SSE
Resurs 1-4 Rocket 3.0 07:27:17 10° N 07:32:01 34° WNW 07:34:46 21° WSW
STARLINK-1205 3.5 07:29:28 10° WNW 07:33:34 63° SW 07:37:39 10° SE
Meteor 1-11 4.2 07:29:36 20° S 07:33:36 89° E 07:39:13 10° N
Cosmos 2181 Rocket 4.2 07:27:43 10° NNW 07:34:00 59° W 07:38:57 17° SSW
Cosmos 2208 Rocket 4.0 07:32:31 24° SSW 07:35:48 88° WNW 07:41:09 10° NNE
STARLINK-43 3.9 07:36:02 29° SSW 07:37:30 45° SE 07:41:02 10° ENE
STARLINK-1218 3.6 07:34:27 10° WNW 07:38:31 57° SW 07:42:34 10° SE
IDEFIX/ARIANE 42P 3.9 07:37:14 10° NNE 07:42:07 37° E 07:46:58 10° SSE
Cosmos 1814 Rocket 4.0 07:38:33 21° SSW 07:42:12 87° WNW 07:47:34 10° NNE
Cosmos 1697 Rocket 2.9 07:38:46 22° SW 07:42:20 60° WNW 07:47:58 10° NNE
STARLINK-1254 3.7 07:39:27 10° WNW 07:43:29 52° SW 07:47:30 10° SE
Cosmos 2227 Rocket 2.8 07:39:04 10° NW 07:44:11 36° WSW 07:47:50 17° SSW
CZ-2C R/B 4.4 07:42:58 10° NE 07:46:14 29° E 07:49:32 10° SSE
SL-08 R/B 3.2 07:41:36 10° SSE 07:46:18 82° WSW 07:50:58 10° NNW
BREEZE-M DEB (TANK) 3.8 07:45:46 10° NW 07:47:36 20° N 07:49:44 10° ENE
STARLINK-1231 3.8 07:44:28 10° WNW 07:48:27 47° SW 07:52:25 10° SSE
Cosmos 540 Rocket 3.5 07:46:55 21° SSW 07:50:24 68° WNW 07:55:32 10° NNE
BREEZE-M R/B 4.1 07:48:19 10° WNW 07:51:49 28° NNW 07:54:13 10° NE
SL-16 R/B 3.9 07:47:54 10° SSE 07:52:34 27° ESE 07:57:14 10° NE
Cosmos 2154 Rocket 4.2 07:46:48 10° S 07:53:03 73° E 07:59:18 10° NNE
STARLINK-1232 3.9 07:49:29 10° WNW 07:53:25 43° SW 07:57:20 10° SSE
CZ-2D R/B 3.9 07:49:25 10° NNE 07:53:32 62° E 07:57:35 11° S
Cosmos 1315 Rocket 4.0 07:49:47 10° N 07:53:32 42° ENE 07:57:15 10° SSE
COBE Rocket 3.9 07:52:01 10° SSE 07:56:56 88° WSW 08:02:03 10° NNW
STARLINK-1208 4.0 07:54:29 10° WNW 07:58:22 39° SW 08:02:13 10° SSE
Iridium 2 3.6 07:54:49 10° N 07:58:36 84° W 08:02:21 10° S
ERS-2 2.0 07:56:02 10° SSE 07:59:41 84° WSW 08:03:22 10° NNW
STARLINK-1225 4.4 07:56:38 10° NW 08:00:44 56° NNE 08:04:47 10° ESE
STARLINK-1271 4.1 07:59:30 10° WNW 08:03:19 36° SW 08:07:05 10° SSE
BREEZE-M DEB (TANK) 0.9 08:01:13 10° WNW 08:03:23 64° SSW 08:05:46 10° SE
IRIDIUM 103 4.5 07:58:42 10° S 08:03:53 78° E 08:09:07 10° N
CZ-4C R/B 3.6 08:00:32 10° SSE 08:04:05 62° ENE 08:07:42 10° N
STARLINK-1230 4.2 08:01:36 10° NW 08:05:43 60° NNE 08:09:48 10° ESE
Cosmos 2285 Rocket 4.4 08:01:03 10° NNW 08:07:02 44° WSW 08:12:58 10° S
STARLINK-1154 4.3 08:04:32 10° WNW 08:08:15 32° SW 08:11:57 10° SSE
Cosmos 372 Rocket 3.9 08:04:01 10° NNW 08:09:08 72° WSW 08:14:15 10° S
STARLINK-1243 4.1 08:06:35 10° NW 08:10:43 65° NNE 08:14:49 10° ESE
Cosmos 841 Rocket 4.2 08:07:29 15° SW 08:11:27 42° WNW 08:16:25 10° N
Cosmos 2221 2.5 08:08:16 10° N 08:12:37 88° WSW 08:16:58 10° S
STARLINK-1197 4.4 08:09:33 10° WNW 08:13:12 30° SW 08:16:48 10° SSE
CZ-4C R/B 3.1 08:11:04 12° WSW 08:15:28 38° NW 08:21:04 10° NNE
STARLINK-1236 3.9 08:11:34 10° NW 08:15:43 70° NE 08:19:50 10° ESE
STARLINK-42 4.0 08:13:40 14° SSW 08:16:02 35° SE 08:19:00 10° ENE
Uosat 12 SS-18 rocket 4.1 08:14:04 10° NW 08:18:19 63° WSW 08:22:55 10° SSE
STARLINK-1311 4.3 08:17:38 11° SSW 08:19:58 26° SE 08:22:33 10° ENE
IRIDIUM 106 4.3 08:16:59 10° S 08:22:11 73° W 08:27:25 10° N
STARLINK-1213 4.5 08:19:58 10° SSW 08:22:35 26° SE 08:25:14 10° ENE
Meteor 1-27 4.5 08:17:29 10° NNW 08:22:49 49° W 08:28:08 10° SSW
STARLINK-1263 4.5 08:20:50 10° SSW 08:23:28 26° SE 08:26:09 10° ENE
STARLINK-1259 4.4 08:21:43 10° SSW 08:24:24 27° SE 08:27:06 10° ENE
USA 234 3.9 08:18:18 10° ENE 08:24:38 50° SE 08:30:55 10° SSW
STARLINK 1040 2.6 08:22:42 15° WSW 08:24:44 61° NW 08:27:17 10° NE
STARLINK-1265 4.4 08:22:10 10° SSW 08:24:53 27° SE 08:27:36 10° ENE
STARLINK-1285 4.4 08:22:34 10° SSW 08:25:16 27° SE 08:27:59 10° ENE
Cosmos 2058 3.0 08:21:16 10° S 08:25:26 86° E 08:29:40 10° N
STARLINK-1269 3.7 08:21:29 10° NW 08:25:38 82° NE 08:29:47 10° SE
STARLINK-1268 4.3 08:24:03 10° SSW 08:26:45 28° SE 08:29:28 10° ENE
STARLINK-1296 4.3 08:24:22 10° SSW 08:27:06 28° SE 08:29:50 10° ENE
Lacrosse 4 Rocket 2.1 08:24:09 10° NW 08:27:59 32° WSW 08:31:43 10° S
STARLINK-1260 4.3 08:25:14 10° SSW 08:27:59 29° SE 08:30:45 10° ENE
Nadezhda 3 Rocket 4.1 08:21:52 10° NNW 08:28:05 67° W 08:34:21 10° S
Cosmos 2360 Rocket 4.3 08:24:18 10° SSE 08:28:34 23° E 08:32:52 10° NE
STARLINK-1318 4.3 08:26:07 10° SSW 08:28:53 30° SE 08:31:40 10° ENE
STARLINK-1275 4.2 08:26:58 10° SSW 08:29:44 30° SE 08:32:32 10° ENE
STARLINK-26 3.4 08:27:13 12° SW 08:30:20 62° SE 08:33:44 10° ENE
STARLINK-1200 3.6 08:26:29 10° NW 08:30:39 89° NNE 08:34:47 10° SE
STARLINK-1309 4.2 08:27:52 10° SSW 08:30:40 31° SE 08:33:28 10° ENE
STARLINK-1282 4.2 08:28:45 10° SSW 08:31:33 31° SE 08:34:22 10° ENE
Meteor 1-28 Rocket 3.9 08:28:08 10° SSW 08:31:35 33° W 08:35:02 10° NNW
STARLINK-1313 3.9 08:29:42 10° SSW 08:32:35 37° SE 08:35:30 10° ENE
STARLINK-55 3.2 08:29:57 11° SW 08:32:54 62° SE 08:36:03 10° ENE
MSX 4.1 08:27:36 10° NNE 08:33:23 75° ESE 08:39:07 10° S
STARLINK-1279 3.9 08:30:39 10° SSW 08:33:33 38° SE 08:36:28 10° ENE
STARLINK-1298 4.1 08:31:24 10° SSW 08:34:15 33° SE 08:37:06 10° ENE
STARLINK-1293 4.0 08:32:19 10° SSW 08:35:10 34° SE 08:38:03 10° ENE
STARLINK-1192 3.6 08:31:29 10° NW 08:35:38 84° SW 08:39:46 10° SE
Cosmos 1980 Rocket 2.9 08:30:34 10° SW 08:35:50 42° WNW 08:41:11 10° NNE
STARLINK-1255 4.0 08:34:02 10° SSW 08:36:55 35° SE 08:39:48 10° ENE
Cosmos 2084 Rocket 3.6 08:35:16 10° NW 08:39:46 86° NE 08:44:17 10° SE
STARLINK-1244 3.6 08:36:27 10° NW 08:40:36 78° SW 08:44:43 10° SE
NOSS 3-1 (C) 4.5 08:33:59 10° NNW 08:41:33 74° NE 08:50:13 10° SE
ERBS 2.7 08:38:24 10° NW 08:41:45 67° NE 08:45:05 10° SE
Cosmos 1892 2.7 08:38:13 10° SSW 08:42:01 64° W 08:45:49 10° N
Cosmos 2341 Rocket 4.1 08:36:09 10° S 08:42:32 85° W 08:48:56 10° N
CZ-4B R/B 2.4 08:39:43 10° SSE 08:42:38 46° ENE 08:45:37 10° N
STARLINK-28 2.9 08:39:58 10° SW 08:43:08 85° SSE 08:46:22 10° NE
STARLINK-1317 3.8 08:39:47 10° SSW 08:43:09 48° SE 08:46:33 10° ENE
NOSS 2-1 (C) 3.5 08:39:55 10° SSW 08:43:16 52° ESE 08:46:41 10° NE
SL-4 R/B 4.2 08:39:28 10° NW 08:43:40 30° N 08:47:42 10° ENE
H-2A R/B 2.6 08:39:43 10° SSW 08:43:44 38° W 08:47:52 10° NNW
STARLINK-1138 3.6 08:41:25 10° WNW 08:45:33 71° SW 08:49:40 10° SE
SAR-Lupe-4 3.6 08:42:49 10° SSE 08:46:24 88° WSW 08:50:01 10° NNW
deb Chang Zheng 4 3.8 08:42:32 10° NNE 08:46:52 76° ESE 08:51:08 10° S
NOSS 2-1 (D) 3.3 08:44:21 10° SSW 08:47:44 61° ESE 08:51:11 10° NE
STARLINK-41 3.0 08:44:51 10° SW 08:47:59 69° SE 08:51:06 10° ENE
Cosmos 2150 Rocket 4.4 08:43:28 10° NNW 08:48:20 42° WSW 08:53:08 10° S
STARLINK-1291 3.6 08:47:01 10° SW 08:50:12 51° SE 08:53:26 10° ENE
STARLINK-1143 3.6 08:46:24 10° WNW 08:50:31 65° SW 08:54:36 10° SE
